Regional Weather Roundup
Issued by NWS

Home | Current Version | Previous Version | Graphics & Text | Print | Product List | Glossary On
Versions: 1 2 3 4 5 6 7 8 9 10 11 12 13 14 15 16 17 18 19 20 21 22 23 24 25 26 27
000
ASUS45 KBOU 250507
RWRCO

WEATHER ROUNDUP FOR COLORADO
NATIONAL WEATHER SERVICE DENVER/BOULDER CO
1100 PM MDT MON JUL 24 2017

NOTE: "FAIR" INDICATES FEW OR NO CLOUDS BELOW 12000 FEET WITH NO
SIGNIFICANT WEATHER AND/OR OBSTRUCTIONS TO VISIBILITY.

COZ001>005-013-030-031-250600-
...NORTHWEST COLORADO...

CITY           SKY/WX    TMP DP  RH WIND       PRES   REMARKS
CRAIG          FAIR      64  51  62 CALM      30.13R
HAYDEN         FAIR      70  39  32 CALM      30.16R
MEEKER         FAIR      73  51  46 NE5       30.17R
RABBIT EARS PA CLOUDY    61  36  39 S5        30.51F
STEAMBOAT SPGS FAIR      66  46  48 CALM      30.18S
WALDEN         CLOUDY    63  37  39 CALM      30.31S
$$

COZ006>008-011-250600-
...WEST CENTRAL VALLEYS...

CITY           SKY/WX    TMP DP  RH WIND       PRES   REMARKS
GRAND JUNCTION TSTM      73  61  65 SE29G51   30.11R
MONTROSE       CLOUDY    73  55  53 SE6       30.20R
EAGLE          CLOUDY    69  53  56 SE5       30.24R
RIFLE          LGT RAIN  71  56  58 S16G23    30.16R
DELTA          LGT RAIN  71  57  61 N25G32    30.19S
NUCLA          MOCLDY    63  59  88 E7        30.26R
$$

COZ017>023-064>068-250600-
...SOUTHWEST COLORADO...

CITY           SKY/WX    TMP DP  RH WIND       PRES   REMARKS
DURANGO        LGT RAIN  60  57  89 N22       30.28F
CORTEZ         MOCLDY    64  62  93 N8        30.23R
PAGOSA SPRINGS LGT RAIN  62  58  86 W3        30.38R
TELLURIDE      LGT RAIN  59  51  74 CALM      30.47S
WOLF CREEK PAS NOT AVBL
$$

COZ009-010-012-014-032>034-037-058>063-250600-
...CENTRAL COLORADO...

CITY           SKY/WX    TMP DP  RH WIND       PRES   REMARKS
ASPEN          FAIR      65  48  54 S5        30.32R
BUENA VISTA    FAIR      63  47  54 NW3       30.34S
COPPER MTN     FAIR      55  37  50 S15       30.65S
BERTHOUD PASS  FAIR      48  34  57 S13G23    30.69S
COTTONWOOD PAS FAIR      63  41  45 SW8       30.49S
GUNNISON       FAIR      63  49  60 N3        30.34R
KREMMLING      FAIR      77  41  27 S6        30.27R
LEADVILLE      FAIR      57  40  52 SE5       30.45S
SALIDA         FAIR      68  50  53 W10       30.37S
SUNLIGHT       CLOUDY    50  43  76 S8        30.57S
WILKERSON PASS MOCLDY    52  37  58 SW10G17   30.61F
$$

COZ069>075-250600-
...SAN LUIS VALLEY/SANGRE DE CRISTO MOUNTAINS...

CITY           SKY/WX    TMP DP  RH WIND       PRES   REMARKS
ALAMOSA        FAIR      60  53  77 CALM      30.30S
DEL NORTE      FAIR      66  48  52 W10       30.35S
LA VETA PASS   NOT AVBL
SAGUACHE         N/A    N/A N/A N/A MISG        N/A
$$

COZ035-036-038>040-250600-
...NORTHERN COLORADO FRONT RANGE...

CITY           SKY/WX    TMP DP  RH WIND       PRES   REMARKS
DENVER INTL AP MOCLDY    74  46  36 S13       30.06S
DMNS CITY PARK   N/A     77  44  31 S8        30.05F
AURORA         MOCLDY    73  47  39 S9        30.09F
FRONT RANGE AP FAIR      73  45  35 S10       30.08F
ERIE MUNI ARPT FAIR      73  46  38 SW5       30.03S
BOULDER MUN AP FAIR      77  43  29 W3        30.04S
CENTENNIAL     MOCLDY    71  45  39 S6        30.11S
BROOMFIELD     FAIR      77  45  31 SW3       30.08F
FORT COLLINS   FAIR      75  51  43 VRB5      30.02F
LONGMONT       FAIR      79  44  29 NW9       30.03F
$$

COZ041-046-047-076>085-087-088-250600-
...PIKES PEAK/PALMER DIVIDE AND SOUTHERN FOOTHILLS...

CITY           SKY/WX    TMP DP  RH WIND       PRES   REMARKS
COLO. SPRINGS  MOCLDY    72  52  49 E8        30.16F
A. F. ACADEMY  FAIR      63  49  59 N7        30.17F
SCHRIEVER AFB  FAIR      71  52  51 S8        30.17F
CHEYENNE MTN   MOCLDY    73  42  33 NW3       30.17S
ELLICOTT       NOT AVBL
FALCON           N/A     68  48  48 CALM      30.23F
FORT CARSON    FAIR      69  50  50 N8        30.12F
LIMON          FAIR      71  56  58 SE12      30.12R
MONUMENT HILL  FAIR      59  48  67 S7        30.24S
CANON CITY     CLEAR     75  54  46 W8        30.09S
WALSENBURG     FAIR      72  52  49 SW3       30.16R
TRINIDAD       FAIR      75  47  36 CALM      30.16R
$$

COZ042>045-048>051-090-091-250600-
...NORTHEAST COLORADO...

CITY           SKY/WX    TMP DP  RH WIND       PRES   REMARKS
GREELEY ARPT   FAIR      71  55  56 NW5       30.00S
AKRON          FAIR      80  56  43 S22       30.05R
BURLINGTON     FAIR      75  61  61 SE12      30.07R
WRAY           NOT AVBL
YUMA           FAIR      73  52  46 S7        30.03R
STERLING       FAIR      81  57  44 SE9       29.98S
HOLYOKE        LGT RAIN  82  61  47 SE10      30.04S
FORT MORGAN    FAIR      77  49  36 S9        30.03R
$$

COZ086-089-092>099-250600-
...SOUTHEAST COLORADO...

CITY           SKY/WX    TMP DP  RH WIND       PRES   REMARKS
PUEBLO         FAIR      79  47  32 NW3       30.01S
LA JUNTA       FAIR      83  61  47 S16G24    30.02R
LAMAR          FAIR      79  61  53 S15       30.00S
SPRINGFIELD      N/A     72  62  71 S15       30.10R
$$




USA.gov is the U.S. government's official web portal to all federal, state and local government web resources and services.